Flag for Greenland Weather past 2 weeks in Upernavik, Greenland

Now
32 °F

Low clouds.


Feels Like: 26 °F
Forecast: 24 / 33 °F
Wind: 6 mph from West

Location: Jacobshavn Lufthavn

Current Time: Jun 3, 2015 at 4:12:10 PM

Latest Report: Jun 3, 2015 at 3:00 PM


Visibility: 31 mi

Pressure: 30.29 "Hg

Humidity: 75%

Dew point: 25 °F

Location of UpernavikLocation

Historic Weather in Upernavik — Graph

°F

Upernavik temperature yesterday

Maximum temperature yesterday: 34 °F (at 2:00 PM)
Minimum temperature yesterday: 30 °F (at 1:00 AM)
Average temperature yesterday: 32 °F

Past Weeks' High & Low Weather Summary

 TemperatureHumidityPressure
High53 °F (May 31, 5:00 PM)96% (Jun 1, 10:00 PM)30.29 "Hg (Jun 1, 10:00 PM)
Low23 °F (May 22, 1:00 AM)27% (May 31, 3:00 PM)29.23 "Hg (May 29, 4:00 AM)
Average33 °F64%29.77 "Hg
* Reported May 19 2:00 PM — Jun 3 2:00 PM, Upernavik, Weather by CustomWeather, © 2015

Note: Actual official high and low records may vary slightly from our data, if they occured in-between our weather recording intervals... More about our weather records

Advertising

Upernavik weather history for previous 24 hours

 ConditionsComfort  
Time TempWeatherWind HumidityBarometerVisibility
2:00 PM
Wed, Jun 3
31 °FLow clouds.7 mph79%30.29 "Hg28 mi
1:00 PM30 °FLow clouds.7 mph83%30.28 "Hg28 mi
12:00 PM30 °FSnow flurries. Low clouds.6 mph86%30.28 "Hg2 mi
11:00 AM31 °FLow clouds.N/A83%30.27 "Hg13 mi
10:00 AM33 °FFog.7 mph83%30.27 "Hg3 mi
8:00 AM32 °FOvercast.No wind75%30.25 "Hg31 mi
7:00 AM32 °FOvercast.No wind80%30.24 "Hg31 mi
6:00 AM32 °FPartly sunny.3 mph83%30.23 "Hg31 mi
5:00 AM32 °FPartly sunny.No wind80%30.23 "Hg31 mi
4:00 AM31 °FOvercast.No wind83%30.21 "Hg31 mi
3:00 AM31 °FOvercast.No wind87%30.21 "Hg31 mi
2:00 AM30 °FFreezing rain. Scattered clouds.No wind86%30.21 "Hg2 mi
1:00 AM31 °FOvercast.No wind83%30.20 "Hg31 mi
12:00 AM31 °FRain showers. Overcast.3 mph87%30.19 "Hg4 mi
11:00 PM
Tue, Jun 2
32 °FFog.No wind83%30.19 "Hg19 mi
10:00 PM32 °FOvercast.3 mph75%30.18 "Hg31 mi
9:00 PM32 °FRain showers. Overcast.5 mph80%30.17 "Hg22 mi
8:00 PM32 °FOvercast.3 mph75%30.16 "Hg31 mi
7:00 PM32 °FOvercast.5 mph75%30.15 "Hg31 mi
6:00 PM33 °FOvercast.5 mph72%30.15 "Hg31 mi
5:00 PM33 °FOvercast.5 mph72%30.15 "Hg31 mi
4:00 PM34 °FOvercast.6 mph69%30.15 "Hg31 mi
Weather by CustomWeather, © 2015

See weather overviewHow to use our weather pages